Home   Weather   Markham   Past weeks

Flag for Canada Past Weather in Markham, Ontario, Canada — Yesterday and Last 2 Weeks

Now
27 °F

Scattered clouds.


Feels Like: 16 °F
Forecast: 21 / 27 °F
Wind: 12 mph from Northwest

Location: Toronto Buttonville

Current Time: Dec 9, 2016 at 2:29:55 pm

Latest Report: Dec 9, 2016 at 2:00 pm


Visibility: 15 mi

Pressure: 30.25 "Hg

Humidity: 64%

Dew Point: 16 °F

Location of MarkhamLocation

Past Weather in Markham — Graph

°F

Markham Temperature Yesterday

Maximum temperature yesterday: 32 °F (at 8:00 am)
Minimum temperature yesterday: 27 °F (at 11:00 pm)
Average temperature yesterday: 30 °F

High & Low Weather Summary for the Past Weeks

 TemperatureHumidityPressure
High57 °F (Nov 29, 2:00 pm)100% (Nov 25, 2:00 am)30.30 "Hg (Nov 25, 2:00 am)
Low21 °F (Dec 9, 6:00 am)55% (Dec 8, 9:00 am)29.43 "Hg (Nov 30, 10:00 pm)
Average38 °F81%29.96 "Hg
* Reported Nov 24 1:00 pm — Dec 9 1:00 pm, Markham, Weather by CustomWeather, © 2016

Note: Actual official high and low records may vary slightly from our data, if they occured in-between our weather recording intervals... More about our weather records

Advertising

Markham Weather History for the Previous 24 Hours

Scroll right to see more
 ConditionsComfort  
Time TempWeatherWind HumidityBarometerVisibility
1:00 pm
Fri, Dec 9
27 °FPartly sunny.8 mph59%30.25 "Hg15 mi
12:00 pm25 °FPassing clouds.9 mph63%30.26 "Hg15 mi
11:00 am25 °FPassing clouds.7 mph63%30.27 "Hg15 mi
10:00 am23 °FBroken clouds.8 mph58%30.27 "Hg15 mi
9:00 am21 °FLight mixture of precip. Passing clouds.6 mph68%30.24 "Hg15 mi
8:00 am21 °FPassing clouds.7 mph68%30.22 "Hg15 mi
7:00 am21 °FSnow flurries. Overcast.12 mph74%30.20 "Hg8 mi
6:00 am21 °FSnow flurries. Overcast.7 mph86%30.17 "Hg12 mi
5:00 am23 °FSnow flurries. Overcast.7 mph86%30.15 "Hg5 mi
4:00 am23 °FOvercast.5 mph86%30.13 "Hg15 mi
3:00 am23 °FSnow flurries. Passing clouds.5 mph86%30.11 "Hg15 mi
2:00 am25 °FSnow flurries. Overcast.2 mph86%30.09 "Hg7 mi
1:00 am25 °FSnow flurries. Overcast.5 mph86%30.07 "Hg8 mi
12:00 am25 °FSnow flurries. Ice fog.9 mph86%30.06 "Hg1 mi
11:00 pm
Thu, Dec 8
27 °FSnow flurries. Passing clouds.8 mph80%30.03 "Hg10 mi
10:00 pm28 °FSnow flurries. Ice fog.12 mph80%30.01 "Hg1 mi
9:00 pm28 °FSnow flurries. Overcast.8 mph86%29.98 "Hg8 mi
8:00 pm28 °FSnow flurries. Ice fog.12 mph80%29.97 "Hg1 mi
7:00 pm28 °FLight mixture of precip. Passing clouds.12 mph74%29.96 "Hg10 mi
6:00 pm28 °FPassing clouds.12 mph74%29.95 "Hg15 mi
5:00 pm28 °FPassing clouds.15 mph69%29.94 "Hg15 mi
4:45 pm30 °FPassing clouds.12 mph64%29.94 "Hg15 mi
4:00 pm30 °FLight snow. Partly sunny.8 mph59%29.93 "Hg14 mi
3:00 pm30 °FBroken clouds.13 mph55%29.93 "Hg15 mi
2:00 pm30 °FBroken clouds.14 mph55%29.91 "Hg15 mi
Weather by CustomWeather, © 2016

See weather overviewHow to use our weather pages